• In France
  • List of Countries
  • For 7 days
  • Water Temperature
  • Satellite Maps
  • Weather Map
  • Weather Widgets
  • user-avatar
    Login

    Hourly Weather Gamboma

    Today, 18 December, Monday

    Time Temperature Precipitation Wind Pressure Humidity
    00:00 +26°C° 0.5 mm 2 mps 728 mmHg 88%
    01:00 +25°C° 0 mm 1 mps 728 mmHg 89%
    02:00 +25°C° 0.1 mm 1 mps 728 mmHg 89%
    03:00 +25°C° 0.1 mm 1 mps 728 mmHg 89%
    04:00 +25°C° 0.1 mm 2 mps 728 mmHg 89%
    05:00 +25°C° 0.1 mm 2 mps 728 mmHg 87%
    06:00 +26°C° 0.1 mm 1 mps 728 mmHg 86%
    07:00 +26°C° 0 mm 2 mps 729 mmHg 84%
    08:00 +28°C° 0.2 mm 2 mps 728 mmHg 75%
    09:00 +30°C° 0.2 mm 2 mps 728 mmHg 66%
    10:00 +32°C° 0.2 mm 2 mps 728 mmHg 57%
    11:00 +34°C° 0.2 mm 2 mps 728 mmHg 53%
    12:00 +35°C° 0.2 mm 2 mps 727 mmHg 50%
    13:00 +34°C° 0 mm 1 mps 727 mmHg 51%
    14:00 +33°C° 0.7 mm 1 mps 727 mmHg 55%
    15:00 +32°C° 0.7 mm 1 mps 726 mmHg 59%
    16:00 +32°C° 0.7 mm 1 mps 726 mmHg 63%
    17:00 +30°C° 0.4 mm 2 mps 726 mmHg 68%
    18:00 +29°C° 0.4 mm 2 mps 726 mmHg 73%
    19:00 +27°C° 0.4 mm 2 mps 727 mmHg 79%
    20:00 +27°C° 0.5 mm 2 mps 727 mmHg 82%
    21:00 +26°C° 0.5 mm 2 mps 728 mmHg 85%
    22:00 +26°C° 0.5 mm 1 mps 728 mmHg 88%
    23:00 +25°C° 0.3 mm 2 mps 728 mmHg 89%

    Tomorrow, 19 December, Tuesday

    Time Temperature Precipitation Wind Pressure Humidity
    00:00 +25°C° 0.3 mm 2 mps 728 mmHg 89%
    01:00 +25°C° 0.3 mm 2 mps 728 mmHg 90%
    02:00 +25°C° 0.5 mm 2 mps 727 mmHg 90%
    03:00 +25°C° 0.5 mm 3 mps 727 mmHg 90%
    04:00 +24°C° 0.5 mm 3 mps 727 mmHg 90%
    05:00 +25°C° 0 mm 3 mps 727 mmHg 89%
    06:00 +25°C° 0 mm 2 mps 727 mmHg 88%
    07:00 +25°C° 0 mm 2 mps 727 mmHg 88%
    08:00 +26°C° 0 mm 2 mps 728 mmHg 83%
    09:00 +27°C° 0 mm 2 mps 728 mmHg 78%
    10:00 +28°C° 0 mm 2 mps 728 mmHg 74%
    11:00 +30°C° 0 mm 1 mps 728 mmHg 67%
    12:00 +31°C° 0 mm 1 mps 727 mmHg 61%
    13:00 +33°C° 0 mm 1 mps 727 mmHg 55%
    14:00 +32°C° 0 mm 1 mps 726 mmHg 55%
    15:00 +32°C° 0 mm 1 mps 726 mmHg 55%
    16:00 +32°C° 0 mm 1 mps 725 mmHg 56%
    17:00 +31°C° 0.1 mm 1 mps 726 mmHg 62%
    18:00 +29°C° 0.1 mm 1 mps 726 mmHg 68%
    19:00 +27°C° 0.1 mm 1 mps 726 mmHg 74%
    20:00 +27°C° 0 mm 1 mps 727 mmHg 76%
    21:00 +27°C° 0 mm 1 mps 727 mmHg 79%
    22:00 +26°C° 0 mm 1 mps 728 mmHg 82%
    23:00 +26°C° 0.1 mm 2 mps 728 mmHg 83%

    Day after tomorrow, 20 December, Wednesday

    Time Temperature Precipitation Wind Pressure Humidity
    00:00 +25°C° 0.1 mm 2 mps 727 mmHg 85%
    01:00 +25°C° 0.1 mm 2 mps 727 mmHg 87%
    02:00 +25°C° 0 mm 2 mps 727 mmHg 88%
    03:00 +24°C° 0 mm 2 mps 727 mmHg 88%
    04:00 +24°C° 0 mm 2 mps 726 mmHg 89%
    05:00 +25°C° 0 mm 2 mps 727 mmHg 88%
    06:00 +25°C° 0 mm 2 mps 727 mmHg 86%
    07:00 +25°C° 0 mm 2 mps 728 mmHg 85%
    08:00 +27°C° 0 mm 2 mps 728 mmHg 78%
    09:00 +29°C° 0 mm 1 mps 728 mmHg 71%
    10:00 +31°C° 0 mm 1 mps 729 mmHg 63%
    11:00 +32°C° 0 mm 1 mps 728 mmHg 59%
    12:00 +34°C° 0 mm 1 mps 727 mmHg 54%
    13:00 +35°C° 0 mm 1 mps 727 mmHg 49%
    14:00 +35°C° 0 mm 1 mps 726 mmHg 48%
    15:00 +33°C° 0 mm 0 mps 726 mmHg 47%
    16:00 +33°C° 0 mm 0 mps 725 mmHg 46%
    17:00 +33°C° 0.2 mm 1 mps 725 mmHg 54%
    18:00 +30°C° 0.2 mm 1 mps 726 mmHg 63%
    19:00 +28°C° 0.2 mm 2 mps 726 mmHg 71%
    20:00 +27°C° 0.6 mm 2 mps 727 mmHg 77%
    21:00 +27°C° 0.6 mm 1 mps 728 mmHg 82%
    22:00 +26°C° 0.6 mm 1 mps 728 mmHg 88%
    23:00 +26°C° 0.4 mm 1 mps 728 mmHg 89%

    21 December, Thursday

    Time Temperature Precipitation Wind Pressure Humidity
    00:00 +25°C° 0.4 mm 1 mps 728 mmHg 89%
    01:00 +25°C° 0.4 mm 1 mps 728 mmHg 89%
    02:00 +25°C° 0.3 mm 1 mps 728 mmHg 90%
    03:00 +25°C° 0.3 mm 1 mps 728 mmHg 90%
    04:00 +25°C° 0.3 mm 1 mps 728 mmHg 91%
    05:00 +25°C° 0.4 mm 1 mps 728 mmHg 90%
    06:00 +25°C° 0.4 mm 1 mps 729 mmHg 90%
    07:00 +25°C° 0.4 mm 1 mps 729 mmHg 89%
    08:00 +27°C° 0.8 mm 1 mps 729 mmHg 82%
    09:00 +29°C° 0.8 mm 1 mps 729 mmHg 74%
    10:00 +30°C° 0.8 mm 2 mps 730 mmHg 67%
    11:00 +32°C° 0 mm 1 mps 729 mmHg 59%
    12:00 +34°C° 0 mm 1 mps 728 mmHg 52%
    13:00 +36°C° 0 mm 1 mps 727 mmHg 45%
    14:00 +35°C° 0 mm 1 mps 726 mmHg 46%
    15:00 +35°C° 0 mm 1 mps 726 mmHg 48%
    16:00 +34°C° 0 mm 1 mps 725 mmHg 49%
    17:00 +32°C° 0 mm 1 mps 725 mmHg 55%
    18:00 +30°C° 0 mm 1 mps 726 mmHg 62%
    19:00 +29°C° 0 mm 1 mps 726 mmHg 68%
    20:00 +28°C° 0.3 mm 1 mps 727 mmHg 72%
    21:00 +27°C° 0.3 mm 1 mps 727 mmHg 77%
    22:00 +26°C° 0.3 mm 2 mps 728 mmHg 81%
    23:00 +26°C° 0.4 mm 1 mps 728 mmHg 83%

    22 December, Friday

    Time Temperature Precipitation Wind Pressure Humidity
    00:00 +26°C° 0.4 mm 1 mps 728 mmHg 85%
    01:00 +25°C° 0.4 mm 1 mps 728 mmHg 87%
    02:00 +25°C° 0.4 mm 1 mps 727 mmHg 88%
    03:00 +25°C° 0.4 mm 1 mps 727 mmHg 89%
    04:00 +25°C° 0.4 mm 1 mps 727 mmHg 90%
    05:00 +25°C° 0.8 mm 1 mps 728 mmHg 89%
    06:00 +25°C° 0.8 mm 2 mps 729 mmHg 89%
    07:00 +25°C° 0.8 mm 2 mps 729 mmHg 88%
    08:00 +27°C° 0.1 mm 2 mps 729 mmHg 79%
    09:00 +30°C° 0.1 mm 2 mps 730 mmHg 69%
    10:00 +32°C° 0.1 mm 2 mps 730 mmHg 59%
    11:00 +32°C° 1.1 mm 2 mps 729 mmHg 61%
    12:00 +32°C° 1.1 mm 2 mps 728 mmHg 63%
    13:00 +32°C° 1.1 mm 1 mps 728 mmHg 65%
    14:00 +31°C° 1.1 mm 1 mps 727 mmHg 67%
    15:00 +30°C° 1.1 mm 1 mps 726 mmHg 69%
    16:00 +30°C° 1.1 mm 1 mps 726 mmHg 70%
    17:00 +29°C° 0.1 mm 1 mps 726 mmHg 75%
    18:00 +28°C° 0.1 mm 1 mps 726 mmHg 79%
    19:00 +26°C° 0.1 mm 1 mps 726 mmHg 83%
    20:00 +26°C° 0 mm 1 mps 727 mmHg 84%
    21:00 +26°C° 0 mm 1 mps 727 mmHg 85%
    22:00 +25°C° 0 mm 1 mps 728 mmHg 86%
    23:00 +25°C° 0.3 mm 1 mps 728 mmHg 87%

    23 December, Saturday

    Time Temperature Precipitation Wind Pressure Humidity
    00:00 +25°C° 0.3 mm 1 mps 727 mmHg 89%
    01:00 +24°C° 0.3 mm 1 mps 727 mmHg 90%
    02:00 +24°C° 0 mm 1 mps 727 mmHg 90%
    03:00 +24°C° 0 mm 1 mps 727 mmHg 91%
    04:00 +24°C° 0 mm 1 mps 727 mmHg 91%
    05:00 +24°C° 0.1 mm 1 mps 727 mmHg 90%
    06:00 +25°C° 0.1 mm 1 mps 728 mmHg 88%
    07:00 +25°C° 0.1 mm 1 mps 728 mmHg 87%
    08:00 +28°C° 0.1 mm 1 mps 729 mmHg 77%
    09:00 +30°C° 0.1 mm 1 mps 729 mmHg 66%
    10:00 +31°C° 0.1 mm 0 mps 729 mmHg 56%
    11:00 +32°C° 0 mm 0 mps 728 mmHg 52%
    12:00 +34°C° 0 mm 0 mps 727 mmHg 48%
    13:00 +35°C° 0 mm 0 mps 726 mmHg 44%
    14:00 +34°C° 0.1 mm 0 mps 726 mmHg 47%
    15:00 +34°C° 0.1 mm 1 mps 725 mmHg 49%
    16:00 +33°C° 0.1 mm 1 mps 724 mmHg 52%
    17:00 +32°C° 0 mm 1 mps 725 mmHg 59%
    18:00 +30°C° 0 mm 2 mps 725 mmHg 65%
    19:00 +28°C° 0 mm 2 mps 725 mmHg 71%
    20:00 +28°C° 0 mm 2 mps 726 mmHg 73%
    21:00 +27°C° 0 mm 2 mps 726 mmHg 75%
    22:00 +27°C° 0 mm 2 mps 727 mmHg 78%
    23:00 +26°C° 0 mm 2 mps 727 mmHg 79%
    Show more